Погода в Усть-Ишиме

Россия / Омская область     57°41′26″N   71°09′52″E
темп.,
°C
ветер,
м/с
пор.,
м/с
влажн.,
%
обл.,
%
осадки,
мм/ч
давл.,
гПа
погр.,
м
28 февраля, вс
вс2800:00−28юв259977 0.0 1029101
03:00−29юв259894 0.0 1027117
06:00−30вюв379789 0.0 1026163
09:00−28вюв489698 0.0 1024240
12:00−23вюв489598 0.0 1023265
15:00−19вюв489297 0.0 1021372
18:00−19вюв499395 0.0 1019406
21:00−20в3119697 0.0 1018397
1 марта, пн
пн100:00−20в499599 0.0 1017380
03:00−23всв3996100 0.0 1016257
06:00−23всв399595 0.0 1015254
09:00−22св499595 0.0 1015270
12:00−18св369496 0.1 1015314
15:00−15св3693100 0.0 1014358
18:00−16св3694100 0.1 1015329
21:00−18св239786 0.1 101689
2 марта, вт
вт200:00−19всв119882 0.1 101720
03:00−21юв1110089 0.0 101620
06:00−22юз0110093 0.1 101620
09:00−22ююв119999 0.0 101620
12:00−16ю239399 0.1 1015313
15:00−13ю2491100 0.1 1014502
18:00−13ю2595100 0.1 1013259
21:00−17ююв239999 0.1 101358
3 марта, ср
ср300:00−19ююв249990 0.1 101373
03:00−20ююв2510098 0.0 1012108
06:00−21ююв369994 0.1 1012147
09:00−20ююв389882 0.0 1011236
12:00−15ююв489491 0.0 1010393
15:00−12ююв51092100 0.1 1008618
18:00−12ю51093100 0.3 1008742
21:00−13ю41194100 0.6 1007650
4 марта, чт
чт400:00−12ю4995100 0.9 1006515
03:00−10ю3895100 0.3 1004430
06:00−9ююв3895100 0.8 1003423
09:00−8ююв3895100 0.4 1002422
12:00−4ю3794100 0.8 1000507
15:00−1ю3695100 0.7 999517
18:00−2ю2697100 1.1 999322
21:00−4ю2398100 0.2 99874